Regional Weather Roundup
Issued by NWS

Home | Current Version | Previous Version | Text Only | Print | Product List | Glossary On
Versions: 1 2 3 4 5 6 7 8 9 10 11 12 13 14 15 16 17 18 19 20 21 22 23 24 25 26 27 28 29 30 31 32 33 34 35 36 37 38 39 40 41 42 43 44 45 46 47 48 49 50
000
ASUS44 KLIX 301310
RWRLA
LOUISIANA WEATHER ROUNDUP
NATIONAL WEATHER SERVICE NEW ORLEANS LA
800 AM CDT SAT AUG 30 2014

NOTE: "FAIR" INDICATES FEW OR NO CLOUDS BELOW 12,000 FEET WITH NO
      SIGNIFICANT WEATHER AND/OR OBSTRUCTIONS TO VISIBILITY.
      SKY/WX - SKY CONDITION AND SIGNIFICANT WEATHER.
      TMP - AIR TEMPERATURE.    DP   - DEWPOINT TEMPERATURE.
      RH  - RELATIVE HUMIDITY.  PRES - PRESSURE.
      HX  - HEAT INDEX.         WCI  - WIND CHILL INDEX.

*  THESE STATIONS ARE NOT NWS OR FAA STATIONS AND ARE NOT UNDER
   NWS QUALITY CONTROL.

LAZ040-048-061>063-065-066-069-301400-
SOUTHEAST LOUISIANA

CITY           SKY/WX    TMP DP  RH WIND       PRES   REMARKS
N.O. AUDUBON     N/A     81  79  94 MISG        N/A
N.O. INTL ARPT PTSUNNY   82  77  84 SE8       30.01R
N.O. LAKEFRONT SUNNY     81  76  84 SE13      30.02R
N.O. DOWNTOWN* FAIR      81  73  78 SE5       30.02R
SLIDELL        MOSUNNY   81  75  82 SE6       30.01R
BATON ROUGE    PTSUNNY   78  76  93 E8        29.99R
BOOTHVILLE     SUNNY     83  79  88 SE7       30.02R
BELLE CHASSE   PTSUNNY   82  76  81 SE8       30.00R
BOGALUSA*        N/A     79  75  86 SE3       30.03S
GALLIANO*      NOT AVBL
NEW ROADS*     CLOUDY    78  76  94 SE6       29.98R
GONZALES*      FAIR      80  80  99 E5        29.98S
HAMMOND*       PTSUNNY   81  75  83 E6        30.02S
HOUMA*         NOT AVBL
PORT FOURCHON* MOSUNNY   84  77  79 SE9G16    30.01R

$$

LAZ041-044-053-054-301400-
SOUTHWEST LOUISIANA

CITY           SKY/WX    TMP DP  RH WIND       PRES   REMARKS
LAKE CHARLES   HVY RAIN  76  73  91 N3        29.94S FOG
LAFAYETTE      CLOUDY    76  75  97 VRB5      29.95F
PATTERSON        N/A     79  79 100 E6        29.99S
SALT POINT       N/A     85  81  88 SE8       29.95R HX 100
NEW IBERIA     CLOUDY    79  76  90 E9        29.95F
CHENAULT AIRPK RAIN      75  75 100 CALM      29.97R

$$

LAZ027-028-301400-
CENTRAL LOUISIANA

CITY           SKY/WX    TMP DP  RH WIND       PRES   REMARKS
FORT POLK      HVY RAIN  73  72  96 NE5       29.97R
ALEXANDRIA INT HVY RAIN  75  73  93 W3        29.97R VSB 1/2
ALEXANDRIA     RAIN      75  73  93 E3        29.98R

$$

LAZ001-002-301400-
NORTHWEST LOUISIANA

CITY           SKY/WX    TMP DP  RH WIND       PRES   REMARKS
SHREVEPORT     PTSUNNY   76  72  87 SE3       29.96S
BARKSDALE AFB  CLOUDY    76  73  91 SE5       29.97S
DTN SHREVEPORT PTSUNNY   76  72  87 E5        29.97S

$$

LAZ014-016-301400-
NORTHEAST LOUISIANA

CITY           SKY/WX    TMP DP  RH WIND       PRES   REMARKS
MONROE         CLOUDY    75  73  93 E3        30.01R FOG
TALLULAH       CLOUDY    77  74  90 E5        30.01S

$$




USA.gov is the U.S. government's official web portal to all federal, state and local government web resources and services.